Location: Rainwater Observatory
(33.2833°N, 89.3833°W)
Time: 15:50:57
(UTC-05:00)

Daily predictions for brighter satellites

Satellite Brightness Start Highest point End
(mag) Time Altitude Azimuth Time Altitude Azimuth Time Altitude Azimuth
Cosmos 1980 4.0 20:27:36 10° NNW 20:33:12 56° ENE 20:38:44 10° SE
NOSS 0 Rocket 4.0 20:28:32 10° NNW 20:34:47 75° ENE 20:41:00 10° SSE
Cosmos 1340 Rocket 3.8 20:32:46 10° SSE 20:36:14 29° E 20:39:43 10° NNE
Cosmos 1184 Rocket 3.8 20:33:37 10° SSE 20:36:33 29° E 20:39:30 10° NNE
ATLAS 2AS CENTAUR R/B 4.2 20:32:34 10° NW 20:39:40 40° WSW 20:46:12 10° S
Meteor 2-5 Rocket 4.0 20:34:20 10° SSW 20:40:10 78° W 20:45:55 10° N
SEDSat Delta rocket 3.7 20:37:21 10° W 20:41:46 41° SSW 20:45:45 10° SE
NOSS 3-4 (A) 4.3 20:36:22 10° NNW 20:43:14 49° NE 20:50:31 10° SE
Cosmos 2237 Rocket 2.3 20:37:43 10° NNW 20:43:18 63° ENE 20:48:51 10° SSE
NOSS 3-4 (C) 4.3 20:36:28 10° NNW 20:43:20 48° NE 20:50:35 10° SE
SL-8 R/B 3.8 20:39:54 10° NW 20:44:41 78° NE 20:49:27 10° SE
USA 186 0.9 20:43:54 10° SSE 20:46:19 88° NE 20:48:37 10° N
Spot 2 Rocket 3.6 20:41:29 10° S 20:46:31 81° WSW 20:51:36 10° NNW
Resurs 01 Rocket 2.2 20:46:43 10° S 20:51:03 58° W 20:55:23 10° NNW
Cosmos 2098 Rocket 4.5 20:44:10 10° N 20:51:46 73° E 20:59:00 10° SSE
Cosmos 2227 Rocket 3.2 20:48:08 10° SW 20:53:36 51° WNW 20:59:07 10° N
CZ-2D R/B 4.2 20:50:28 10° S 20:54:08 48° W 20:57:52 10° NNW
Cosmos 1674 4.0 20:55:25 11° SE 20:58:09 22° E 21:01:04 10° NE
Resurs 1-3 4.4 20:55:17 10° S 20:59:33 51° W 21:03:50 10° NNW
H-2A ROCKET BODY 3.1 20:57:57 10° S 20:59:42 14° SE 21:02:29 10° ESE
Atlas Centaur 2 1.3 20:57:01 10° W 21:00:40 51° S 21:03:33 14° ESE
Cosmos 2084 3.2 20:56:39 10° SSW 21:00:43 65° ESE 21:04:36 10° NE
Meteor 1-24 Rocket 3.9 20:55:35 10° S 21:01:33 84° W 21:07:21 10° N
Aureole 2 Rocket 3.1 20:58:59 10° NNW 21:02:58 63° WSW 21:06:39 10° S
In-Cosmos 22 4.2 20:58:37 10° S 21:04:15 74° E 21:10:00 10° NNE
Helios 1B rocket 2.4 21:00:59 10° NNE 21:05:09 79° ESE 21:09:17 10° S
Helios 1A 3.0 21:02:01 10° SSE 21:06:07 64° ENE 21:10:13 10° N
SL-16 R/B 2.9 21:02:10 10° N 21:07:29 40° ENE 21:11:44 15° SE
SAR-Lupe-4 4.0 21:07:57 15° SE 21:10:41 46° ENE 21:14:07 10° N
Envisat 3.1 21:06:01 10° S 21:11:05 81° WSW 21:16:11 10° NNW
Meteor 1-29 2.8 21:10:32 10° NNE 21:13:58 81° ESE 21:17:25 10° S
Meteor 2-15 Rocket 4.5 21:12:05 10° S 21:18:09 86° W 21:24:15 10° N
Spot 1 3.9 21:17:43 13° SSE 21:21:17 85° ENE 21:25:27 10° NNW
Cosmos 1842 Rocket 4.0 21:16:58 10° NNW 21:21:18 61° W 21:25:33 10° S
Cosmos 1605 Rocket 4.3 21:16:41 10° N 21:22:56 72° W 21:29:14 10° S
Cosmos 2219 Rocket 3.9 21:18:33 10° NW 21:23:19 29° WSW 21:28:04 10° SSW
USA 32 4.2 21:22:32 10° S 21:27:45 76° W 21:33:01 10° N
Cosmos 2333 Rocket 3.7 21:24:43 10° NW 21:29:39 32° WSW 21:34:32 10° SSW
SAR-Lupe-1 4.0 21:28:05 22° SSE 21:30:15 74° ENE 21:33:51 10° N
CZ-4B DEB 2.7 21:28:55 21° S 21:30:43 72° WSW 21:33:41 10° NNW
Cosmos 1570 Rocket 4.3 21:26:48 10° N 21:31:58 51° ENE 21:34:58 24° SE
Cosmos 1356 Rocket 3.4 21:29:06 14° S 21:32:34 63° E 21:36:49 10° NNE
Skynet4D Del rocket 4.5 21:27:11 10° WSW 21:32:35 39° S 21:36:04 22° SE
Meteor 2-1 Rocket 4.4 21:27:01 10° N 21:32:49 77° W 21:38:15 11° S
Cosmos 1242 Rocket 3.3 21:30:14 10° N 21:33:43 38° E 21:34:53 29° ESE
NOAA 11 4.4 21:31:28 21° SE 21:34:56 54° ENE 21:40:13 10° N
Cosmos 2227 4.2 21:32:41 10° S 21:38:18 59° ESE 21:43:55 10° NNE
SPOT 5 3.8 21:37:41 24° ESE 21:39:41 33° ENE 21:44:09 10° N
Cosmos 1802 Rocket 4.3 21:34:43 10° N 21:40:38 48° E 21:43:58 25° SE
GPS 2-05 Rocket1 3.3 21:38:01 10° SW 21:40:21 33° S 21:40:21 33° S
Cosmos 1408 Rocket 3.8 21:39:20 27° SSE 21:41:17 48° E 21:45:26 10° NNE
Cosmos 1076 Rocket 3.4 21:38:27 14° S 21:42:13 86° E 21:46:36 10° N
Lacrosse 5 3.8 21:39:57 10° N 21:43:38 20° NE 21:46:42 12° E
Cosmos 1867 4.1 21:39:00 10° SW 21:44:22 62° WNW 21:49:47 10° NNE
Tiangong 1 3.9 21:50:53 10° NNW 21:52:11 12° N 21:53:29 10° NNE
Meteor 1-21 Rocket 4.3 21:51:12 10° SSW 21:56:55 77° W 22:02:33 10° N
RESURS DK-1 3.8 21:54:02 10° N 21:57:27 24° ENE 21:58:06 23° ENE
MetOp-B 4.1 21:56:13 30° SSE 21:58:56 78° ENE 22:04:18 10° N
Cosmos 2221 3.1 21:55:10 10° NNW 21:59:28 56° W 22:02:03 23° SSW
EO 1 Delta rocket 4.5 21:59:49 34° ESE 22:00:57 39° ENE 22:05:14 10° N
SL-14 R/B 3.7 22:02:08 41° E 22:02:08 41° E 22:05:51 10° NNE
USA 234 3.4 21:56:22 10° NE 22:02:54 79° NW 22:09:26 10° SW
YAOGAN 6 4.4 22:02:06 15° SSW 22:04:20 28° W 22:07:31 10° NW
Cosmos 2263 Rocket 2.9 22:04:26 31° ESE 22:04:27 31° ESE 22:09:16 10° NE
ERS-1 Rocket 3.2 22:01:45 26° S 22:04:34 67° WSW 22:09:36 10° NNW
Cosmos 1328 4.0 22:09:20 51° E 22:09:22 51° E 22:13:17 10° NNE
Cosmos 2016 Rocket 3.9 22:03:38 10° N 22:09:52 72° E 22:12:33 36° SSE
Cosmos 1300 3.5 22:07:05 10° NNE 22:10:18 35° ENE 22:10:18 35° ENE
ATLAS 5 CENTAUR R/B 4.4 22:07:49 10° W 22:11:24 22° NW 22:15:13 10° N
H-2A R/B 2.4 22:10:15 39° ESE 22:11:45 52° ENE 22:16:58 10° N
Cosmos 1726 2.4 22:09:24 10° N 22:12:45 51° ENE 22:12:45 51° ENE
Sakura Rocket 4.0 22:08:48 10° WSW 22:16:36 59° S 22:18:33 41° SE
Cosmos 1766 Rocket 4.1 22:15:19 24° SSW 22:17:42 53° W 22:21:57 10° N
Terra 3.0 22:19:38 27° ENE 22:19:54 28° ENE 22:23:55 10° NNE
YAOGAN 11 4.2 22:22:06 53° S 22:23:06 77° WSW 22:27:38 10° NNW
USA 245 3.2 22:24:12 65° WNW 22:24:12 65° WNW 22:27:44 10° NNW
Cosmos 1818 3.9 22:19:01 10° NW 22:24:19 56° WSW 22:26:01 39° SSW
SL-08 RB Rocket 3.7 22:28:03 60° S 22:28:50 79° WSW 22:33:26 10° NNW
Cosmos 1328 Rocket 3.5 22:24:37 10° N 22:28:53 65° ENE 22:28:53 65° ENE
H-2A R/B 3.4 22:34:10 27° ENE 22:34:10 27° ENE 22:37:19 10° NNE
Cosmos 1515 Rocket 3.9 22:29:28 10° N 22:33:17 49° ENE 22:33:17 49° ENE
Cosmos 1743 Rocket 3.4 22:33:39 77° SSW 22:33:56 85° W 22:38:17 10° N
Cosmos 332 Rocket 3.7 22:29:50 10° NNW 22:34:44 70° ENE 22:35:08 66° ESE
Cosmos 2233 Rocket 4.3 22:28:49 10° N 22:34:45 46° E 22:35:40 43° ESE
Cosmos 1603 3.6 22:29:06 10° NNW 22:34:45 78° ENE 22:35:50 59° SE
Cosmos 2228 Rocket 3.0 22:32:22 10° N 22:36:58 75° E 22:37:00 75° E
Cosmos 1151 Rocket 3.8 22:34:10 10° N 22:37:42 40° NE 22:37:42 40° NE
Delta 2 Rocket 4.0 22:33:53 10° WSW 22:39:41 84° SSE 22:41:58 38° E
IGS 5A 4.4 22:41:12 37° NE 22:41:12 37° NE 22:44:25 10° N
ARGOS 3.9 22:43:01 34° SSW 22:44:50 47° W 22:50:03 10° NNW
Atlas Centaur 2 3.7 22:46:02 10° WSW 22:46:12 11° WSW 22:46:12 11° WSW
Cosmos 1447 Rocket 4.4 22:49:20 57° SSE 22:50:41 78° E 22:57:02 10° N
Cosmos 1354 Rocket 4.3 22:51:22 53° ENE 22:51:22 53° ENE 22:55:50 10° NNE
Cosmos 1943 3.5 22:45:25 10° N 22:50:55 50° ENE 22:51:21 49° E
SL-16 R/B 4.0 22:46:59 10° NW 22:51:15 22° W 22:53:37 17° SW
DMSP B5D2-2 4.2 22:47:19 10° N 22:52:31 72° WNW 22:53:40 53° SW
Meteor 2-12 Rocket 4.4 22:50:56 10° N 22:56:55 59° E 22:57:19 58° E
Cosmos 1814 Rocket 4.0 22:56:09 10° NNW 23:01:29 75° WSW 23:01:39 75° SW
Milstar 3 Cent rocket 4.4 22:53:48 10° W 23:02:20 45° SSW 23:06:11 39° SSE
SPOT 1/Viking Rocket 4.3 23:06:11 39° WSW 23:06:50 41° W 23:11:41 10° NNW
Cosmos 841 Rocket 3.5 23:07:44 10° NNW 23:12:35 75° NNE 23:12:35 75° NNE
Cosmos 1763 Rocket 3.6 23:10:23 10° NNW 23:15:02 67° WNW 23:15:02 67° WNW
Cosmos 2058 4.1 23:18:05 41° NW 23:18:05 41° NW 23:21:22 10° N
Cosmos 2285 Rocket 4.3 23:12:07 10° N 23:18:18 53° ENE 23:18:35 52° E
CZ-2C R/B 4.5 23:16:22 10° NE 23:18:21 18° ENE 23:18:21 18° ENE
Cosmos 371 Rocket 4.3 23:20:29 10° NNW 23:24:25 39° W 23:24:25 39° W
Lacrosse 5 2.5 23:21:57 10° NW 23:25:53 50° WNW 23:25:53 50° WNW
CZ-4C R/B 3.2 23:41:36 36° NE 23:41:36 36° NE 23:45:00 10° NE
Cosmos 1072 Rocket 4.5 23:40:21 10° N 23:46:29 84° NNE 23:46:29 84° NNE
Cosmos 2263 Rocket 3.8 23:46:03 22° W 23:48:15 29° WNW 23:53:04 10° N
H-2A R/B 4.2 23:50:53 16° W 23:51:25 16° W 23:54:35 10° NW
Cosmos 1464 Rocket 4.0 23:45:57 10° N 23:51:40 78° N 23:51:40 78° N
